Theta_e
295 295 295 294 295 296 294 295 290 294 295 301 304 306 309 311 311 310 311 312 313 313 314 317 318 320 320 321 322 324 324 325 327 330 330 332 334 332 332 332 329 328 326 326
290 293 294 291 293 294 294 295 295 297 297 304 306 306 305 308 307 307 310 312 311 314 314 315 316 318 318 318 320 322 322 322 325 326 326 331 332 332 333 331 329 330 328 325
286 291 291 287 291 293 294 296 296 293 299 303 302 303 305 307 308 309 309 310 311 312 313 316 315 317 316 317 319 318 319 319 320 321 322 325 326 328 329 331 333 332 331 329
288 289 279 292 298 297 295 296 298 300 301 301 302 304 305 309 308 308 308 309 310 310 313 314 315 316 316 316 316 316 317 317 318 318 320 323 325 326 328 330 331 331 331 331
285 285 288 291 295 294 292 291 294 298 300 302 303 304 305 306 309 309 309 309 310 311 312 313 313 314 314 314 314 314 314 314 315 317 319 321 322 324 326 328 328 329 328 328
289 282 279 289 293 298 298 288 299 298 297 297 299 295 299 306 307 307 309 310 309 311 312 311 312 313 312 312 312 312 313 314 315 317 318 320 322 324 326 326 326 324 325 328
287 285 288 293 297 298 286 288 297 300 300 299 298 301 303 306 307 309 308 309 310 310 310 310 312 312 310 310 309 311 313 313 314 317 319 320 320 323 324 321 322 323 322 325
288 284 281 297 297 290 295 301 300 301 300 300 301 302 302 304 305 306 306 307 308 308 308 310 310 310 308 307 310 310 309 309 309 312 313 313 318 319 317 316 319 319 316 318
288 289 298 300 299 301 301 300 301 301 302 301 300 300 302 303 304 305 306 307 307 306 307 307 307 306 304 306 307 307 306 305 307 307 307 309 311 312 313 313 313 314 314 315
292 295 296 298 302 303 302 301 302 303 303 303 301 301 301 302 302 303 304 303 304 303 302 302 305 305 304 305 304 301 299 300 302 302 302 304 305 307 307 306 311 309 311 312
292 294 296 297 298 300 300 301 301 303 300 301 301 300 301 300 301 301 302 302 301 300 300 299 300 301 302 301 300 297 297 298 297 298 299 300 302 304 303 306 306 310 311 312
288 296 295 293 299 298 296 296 299 298 297 299 298 297 298 299 299 298 298 299 296 295 295 296 297 297 298 299 298 296 295 295 295 296 296 297 298 299 298 297 297 297 296 301
294 299 296 299 300 301 299 299 297 295 296 295 296 296 295 295 296 296 295 293 293 293 294 295 295 294 296 297 297 296 294 295 295 295 295 296 297 297 297 300 296 296 296 296
300 300 296 300 297 300 299 299 299 298 296 295 294 295 294 292 292 290 290 292 293 293 293 294 294 295 297 297 297 297 297 295 296 296 296 297 297 298 298 298 299 302 299 298
299 301 300 301 301 299 300 299 296 294 294 294 293 291 290 288 287 288 290 292 292 293 294 294 294 295 297 297 296 296 296 297 298 298 297 298 299 298 299 299 300 301 304 301
300 299 300 298 297 298 297 297 294 295 293 292 290 288 287 287 287 289 292 294 292 291 292 293 293 295 296 295 294 294 294 294 294 297 299 300 299 299 299 300 300 302 303 305
298 296 296 296 296 296 296 296 295 295 293 290 287 287 287 289 290 291 292 293 293 292 293 293 292 293 293 294 294 294 294 295 292 296 297 298 301 301 301 301 302 304 306 310
300 299 299 298 296 296 296 296 296 295 290 289 289 289 289 289 289 289 290 291 292 292 292 292 291 292 293 294 295 296 298 298 299 298 299 300 301 302 304 305 306 308 306 298
300 298 298 297 297 297 296 295 295 294 290 290 290 289 289 289 289 290 291 290 290 288 289 290 291 291 291 293 293 295 297 299 299 301 302 299 304 307 307 307 311 305 303 301
298 299 298 298 298 298 296 295 295 293 293 292 290 288 287 287 288 289 290 288 290 289 290 289 291 290 291 292 292 296 302 304 305 306 307 308 310 310 315 304 306 304 303 303
298 298 298 298 298 299 297 296 296 294 293 293 289 286 286 286 288 289 287 287 289 290 288 290 290 289 290 291 294 300 306 312 313 313 311 309 309 309 308 306 305 304 303 306
298 298 298 298 299 299 300 298 298 297 295 293 291 287 286 286 287 288 290 287 288 287 287 290 289 287 288 289 296 298 303 305 306 308 308 307 306 304 304 303 304 304 305 305
299 299 299 299 299 299 300 300 298 297 296 293 288 287 287 286 286 285 285 289 289 287 289 289 286 287 287 293 294 295 297 299 303 304 304 306 306 305 305 305 305 305 304 303
300 300 300 301 300 299 298 299 300 300 298 296 294 289 288 287 288 291 291 289 288 288 290 288 287 287 288 291 292 292 292 294 297 301 303 297 304 305 304 304 303 303 302 302
301 301 301 300 299 298 299 300 300 300 301 300 297 299 296 295 290 290 292 291 289 289 290 289 287 288 290 289 289 290 291 291 292 294 297 302 303 303 303 302 302 302 302 302
301 300 301 301 300 299 299 299 299 298 299 299 299 300 299 297 295 295 294 291 292 290 291 291 289 289 289 288 288 288 288 289 290 291 292 295 298 301 301 301 300 299 299 299
302 296 301 301 301 301 299 298 298 298 297 298 298 299 299 297 296 295 292 293 292 291 291 290 290 288 288 287 287 287 287 287 287 289 290 291 293 296 296 297 297 296 296 297
Wind_Speed
24 24 26 28 30 32 27 25 22 22 20 26 27 23 21 10 11 19 20 19 12 13 12 13 10 7 8 10 10 9 10 12 10 11 12 13 12 12 12 12 13 15 15 14
27 24 24 27 30 30 31 32 29 28 33 24 25 25 26 11 23 24 26 20 11 7 7 5 6 8 10 7 11 12 11 11 12 13 14 13 13 13 13 13 14 15 15 16
23 21 23 25 25 27 29 29 24 26 28 27 23 21 19 22 15 15 6 6 5 7 6 5 7 8 11 13 13 13 14 14 15 15 16 15 15 15 15 15 14 15 15 16
15 19 23 18 20 19 18 18 19 25 16 18 15 13 5 14 8 7 6 7 10 8 9 12 14 15 15 16 16 17 17 17 17 18 18 16 16 16 16 14 15 15 15 16
12 16 23 27 20 10 13 18 10 19 15 15 16 16 8 12 10 12 11 7 10 10 13 16 17 17 17 17 18 19 18 19 20 20 19 17 17 16 15 14 14 15 15 17
7 8 10 4 6 14 12 13 11 7 10 13 9 12 6 11 7 10 11 12 12 16 16 17 17 18 19 19 19 20 20 20 20 19 18 18 17 17 15 14 15 14 17 16
14 15 11 2 11 14 10 6 16 19 15 11 14 11 13 16 15 15 12 15 18 17 17 18 17 17 19 19 20 20 20 21 20 18 18 17 16 14 13 12 14 14 16 15
12 13 11 5 13 8 13 17 17 18 16 17 15 14 14 17 19 17 19 20 20 18 18 16 16 17 19 21 20 20 20 21 21 20 16 15 17 16 16 14 15 16 15 16
8 10 18 19 15 9 21 14 14 15 18 21 20 20 19 16 19 21 21 18 18 19 19 18 16 16 18 17 17 17 17 19 18 19 18 17 18 17 14 14 14 15 15 14
19 19 18 23 23 17 18 16 20 20 22 21 21 20 18 20 20 17 17 19 18 19 20 20 17 18 20 19 17 16 18 18 16 16 17 16 13 12 13 13 15 13 14 14
20 15 19 18 23 25 25 24 21 19 17 19 20 22 22 19 20 19 19 18 18 17 18 19 20 19 18 17 16 16 17 16 15 14 16 15 14 13 14 14 14 13 15 12
8 17 16 17 19 18 16 14 16 16 14 15 16 18 21 20 19 19 19 19 16 18 19 19 18 18 18 17 15 16 15 13 13 12 11 12 12 13 18 21 22 23 15 13
11 15 17 22 21 18 14 13 13 12 14 16 17 16 17 17 17 21 19 18 18 18 18 18 18 18 18 17 16 16 16 15 11 13 11 12 12 12 13 13 22 26 24 20
16 18 17 20 16 14 12 12 12 15 15 15 16 15 16 15 15 15 17 17 16 17 18 18 18 18 17 15 15 17 17 23 14 12 11 11 11 12 11 11 11 10 16 20
15 15 18 18 18 14 11 11 12 14 15 15 13 13 12 14 15 16 17 17 17 18 17 17 17 18 15 13 15 16 14 12 12 11 12 13 11 11 11 12 12 11 10 12
16 15 17 15 15 14 14 12 13 14 13 11 13 14 14 13 15 16 17 15 14 13 16 16 16 16 14 14 15 14 14 21 18 12 10 11 11 11 11 11 11 11 10 11
19 18 19 19 17 16 13 9 11 13 9 12 14 14 14 14 15 14 14 14 14 15 14 15 15 16 16 15 16 12 11 11 12 10 12 12 10 10 11 10 10 10 11 12
13 14 15 15 14 14 13 12 12 9 7 11 12 13 13 13 14 15 15 15 15 14 13 13 15 16 17 15 13 11 10 10 9 10 10 10 11 10 11 10 11 12 5 3
15 12 13 14 12 10 11 11 11 8 9 10 12 13 12 12 13 14 15 15 13 16 16 18 23 20 15 16 15 10 11 11 10 9 9 10 9 11 10 11 11 6 5 5
13 12 13 14 13 10 10 9 8 7 8 10 11 13 14 14 14 15 15 14 12 12 18 18 18 15 16 16 18 10 9 10 9 8 8 8 9 10 8 5 5 5 5 6
14 13 13 14 13 12 11 8 8 8 10 11 11 12 12 13 14 14 14 11 17 18 20 19 15 12 12 14 12 9 7 3 2 4 4 3 3 3 4 4 5 5 5 5
12 12 13 13 13 13 12 10 10 10 10 10 12 12 13 14 15 15 13 11 13 20 14 12 13 19 15 15 10 11 10 9 7 5 5 4 3 3 4 4 4 4 4 5
11 12 12 12 13 13 12 11 10 9 11 9 9 12 12 9 9 10 13 17 13 17 11 13 19 22 19 12 12 12 13 12 9 7 6 4 4 3 4 4 5 6 6 6
10 11 12 12 12 12 14 13 13 11 11 12 10 6 8 9 10 10 11 15 20 18 13 15 19 21 18 12 13 14 14 12 11 10 7 7 6 6 6 5 5 5 6 7
10 9 11 12 12 11 12 12 12 13 12 12 13 12 13 9 9 11 11 13 18 16 14 20 23 21 14 13 13 13 12 12 12 11 11 9 7 6 7 7 7 7 7 7
8 7 7 10 9 9 10 10 9 11 11 10 10 10 10 10 11 12 12 15 15 17 14 14 15 15 15 15 15 15 13 13 13 12 11 10 10 9 9 9 9 9 9 9
6 7 7 7 7 8 8 10 10 11 12 11 11 11 11 10 11 13 15 14 14 14 14 14 14 16 15 15 15 14 14 13 15 11 11 11 10 10 10 11 11 11 11 11
Wind_Direction
272 288 291 288 281 280 274 271 266 278 278 288 296 304 284 295 310 282 284 289 285 282 278 272 257 251 275 288 284 271 250 261 238 235 224 227 232 237 238 244 248 251 251 248
277 280 276 277 274 279 277 275 275 272 272 267 277 278 290 228 223 243 253 258 272 284 298 290 335 333 315 298 300 302 300 281 258 241 236 235 237 245 247 249 251 252 252 252
277 288 288 276 273 270 268 261 262 253 258 272 266 283 274 299 307 290 279 279 277 262 293 318 302 290 289 285 276 274 274 269 266 262 258 254 252 250 247 246 246 245 247 249
275 288 276 276 272 286 317 316 319 322 340 1 302 335 292 267 270 269 328 340 335 339 329 308 293 287 287 281 275 270 266 266 265 263 258 252 252 251 250 248 247 248 247 247
258 256 267 276 310 6 339 309 27 340 352 337 351 330 282 26 6 1 351 11 292 308 300 289 286 285 284 282 278 274 269 268 267 265 263 259 255 254 250 250 249 248 249 251
266 271 294 98 337 333 307 278 354 319 330 331 333 300 300 332 336 314 297 293 292 284 285 281 282 286 285 282 280 275 273 273 273 271 270 268 264 260 256 250 251 251 251 243
269 263 265 110 334 319 271 334 313 319 317 310 304 296 283 298 308 309 295 289 286 286 280 279 282 285 282 282 279 282 282 285 281 279 281 275 280 287 265 251 255 262 262 256
301 303 294 178 291 284 316 300 301 301 308 307 304 314 313 302 297 295 293 293 294 290 284 289 293 289 286 284 290 290 291 287 287 286 281 284 278 265 261 256 246 245 249 252
248 275 298 303 306 303 262 303 318 311 310 313 308 302 300 301 290 291 299 298 303 300 302 302 299 290 281 280 279 277 277 274 273 272 271 274 265 260 265 250 243 242 245 241
294 295 326 337 317 357 345 317 310 307 305 298 293 297 296 300 303 301 304 307 302 299 293 286 285 289 283 280 282 280 274 270 269 266 263 259 258 269 256 249 257 243 249 254
301 303 322 309 325 318 320 320 316 313 312 312 311 303 299 297 303 306 300 302 301 295 295 293 288 282 280 278 273 268 266 265 263 260 260 261 256 253 253 262 249 251 246 247
298 312 306 298 307 313 310 304 304 300 304 293 300 302 302 297 301 299 298 301 306 290 282 279 278 276 274 271 267 263 261 259 254 253 252 250 248 253 243 244 254 264 267 256
291 291 288 291 297 299 305 314 307 303 293 302 309 307 305 300 299 306 299 290 281 279 279 280 280 278 276 274 267 259 257 259 256 249 247 247 243 243 250 244 233 235 240 239
297 294 289 295 306 312 310 317 328 326 319 315 311 309 305 297 292 284 278 281 285 285 283 282 280 278 279 277 272 265 259 253 249 247 242 241 240 242 243 246 246 245 234 235
302 298 294 292 302 305 311 319 329 324 329 321 312 296 291 289 286 286 288 288 285 282 284 286 283 281 284 275 271 271 269 262 256 247 236 237 238 236 238 240 245 246 244 235
290 298 310 320 318 320 327 335 314 319 312 304 309 304 295 287 281 284 286 291 296 294 292 289 288 291 292 288 278 270 263 254 246 251 251 230 227 230 236 236 237 239 239 240
328 337 338 338 335 333 331 342 304 295 312 317 310 305 301 297 296 300 305 305 300 296 297 300 298 301 293 285 277 268 262 257 234 236 235 237 243 223 227 230 235 237 239 232
338 348 351 341 342 339 333 322 315 359 341 315 308 306 310 313 310 311 311 312 310 312 315 311 306 300 299 291 283 274 266 255 243 226 227 226 226 228 236 230 229 234 221 140
358 350 346 349 350 348 348 345 351 4 330 317 321 324 321 316 318 317 320 320 323 325 324 321 315 315 305 298 293 275 260 252 239 230 220 220 218 227 227 231 228 187 166 162
353 356 354 348 357 8 7 3 347 346 329 337 336 336 334 331 327 328 328 328 332 320 322 317 324 320 318 308 305 288 262 247 236 208 212 211 213 229 227 172 159 162 173 171
3 7 356 3 359 30 35 4 358 5 357 354 342 335 332 327 333 334 334 334 337 335 328 327 334 331 324 320 316 313 303 270 237 188 175 171 131 138 136 139 161 170 173 171
10 8 10 5 11 18 33 21 16 5 6 359 353 346 344 342 340 338 340 339 331 335 329 342 340 336 332 331 352 355 10 25 26 35 72 94 113 112 117 126 144 145 126 113
12 12 8 11 17 22 21 32 35 17 16 358 350 347 347 337 335 340 338 336 340 337 343 350 344 349 349 3 3 8 18 15 29 30 40 52 76 89 95 98 92 101 112 115
8 20 13 11 17 26 23 26 23 19 44 21 11 336 338 341 348 352 340 338 347 348 356 355 355 358 5 6 9 15 16 11 14 21 33 45 50 70 77 86 94 99 102 105
3 13 30 9 24 20 18 28 33 12 29 38 16 5 9 8 4 341 350 353 357 359 3 5 6 8 12 13 15 14 13 13 19 19 19 27 45 52 68 70 69 76 82 85
19 7 26 25 25 24 16 11 29 35 10 31 26 30 16 12 5 1 359 1 6 5 9 8 11 12 14 13 14 16 15 17 18 19 18 19 27 50 58 63 67 68 70 73
96 18 26 25 26 32 27 33 16 26 30 14 29 35 38 14 13 9 7 8 7 9 11 11 14 16 16 16 16 18 17 17 19 20 24 25 29 46 58 64 67 67 69 66